Flag for Burundi Weather past 2 weeks in Bujumbura, Burundi

Now
68 °F

Passing clouds.


Feels Like: 68 °F
Forecast: 62 / 89 °F
Wind: No wind

Location: Kisumu Airport

Current Time: Jul 26, 2014 at 5:32:10 AM

Latest Report: Jul 26, 2014 at 5:00 AM


Visibility: N/A

Pressure: 30.09 "Hg

Humidity: 88%

Dew point: 64 °F

Location of BujumburaLocation

Historic Weather in Bujumbura — Graph

°F

Bujumbura temperature yesterday

Maximum temperature yesterday: 77 °F (at 12:00 PM)
Minimum temperature yesterday: 66 °F (at 3:00 AM)
Average temperature yesterday: 72 °F

Past Weeks' High & Low Weather Summary

 TemperatureHumidityPressure
High97 °F (Jul 22, 12:00 PM)94% (Jul 12, 6:00 AM)30.21 "Hg (Jul 12, 6:00 AM)
Low63 °F (Jul 21, 6:00 AM)37% (Jul 22, 12:00 PM)29.98 "Hg (Jul 18, 3:00 PM)
Average75 °F70%30.10 "Hg
* Reported Jul 11 6:00 AM — Jul 26 3:00 AM, Bujumbura, Weather by CustomWeather, © 2014

Note: Actual official high and low records may vary slightly from our data, if they occured in-between our weather recording intervals... More about our weather records

Advertising

Bujumbura weather history for previous 24 hours

 ConditionsComfort  
Time TempWeatherWind HumidityBarometerVisibility
3:00 AM
Jul 26
68 °FPassing clouds.No wind94%30.07 "HgN/A
7:00 PM
Jul 25
72 °FLight rain. Mostly cloudy.5 mph83%30.09 "HgN/A
6:00 PM73 °FThunderstorms. Partly cloudy.6 mph78%30.07 "HgN/A
5:00 PM75 °FThunderstorms. Broken clouds.6 mph74%30.07 "HgN/A
4:00 PM77 °FPartly sunny.14 mph74%30.04 "HgN/A
3:00 PM75 °FBroken clouds.16 mph65%30.07 "HgN/A
2:00 PM77 °FBroken clouds.16 mph65%30.09 "HgN/A
1:00 PM77 °FPartly sunny.13 mph69%30.09 "HgN/A
12:00 PM77 °FPartly sunny.5 mph69%30.12 "HgN/A
11:00 AM75 °FPartly sunny.No wind74%30.12 "HgN/A
10:00 AM75 °FPartly sunny.No wind74%30.15 "HgN/A
9:00 AM72 °FPartly sunny.No wind83%30.15 "HgN/A
8:00 AM68 °FPartly sunny.No wind94%30.15 "HgN/A
7:00 AM66 °FOvercast.No wind94%30.12 "HgN/A
6:00 AM66 °FOvercast.3 mph94%30.12 "HgN/A
5:00 AM66 °FOvercast.No wind94%30.12 "HgN/A
Weather by CustomWeather, © 2014

See weather overviewHow to use our weather pages